Location: Garbet
(42.8837°N, 1.2115°E)
Time: 08:10:16
(UTC+00:00)

Cosmos 1953 Rocket - Pass Details

Date: 21 March 2026
Orbit: 599 x 626 km, 82.5° (Epoch: 18 April)

Event Time Altitude Azimuth Distance (km) Brightness Sun altitude
Rises 05:12:43 0° 352° (N) 2,897 7.0 -8.9°
Reaches altitude 10° 05:14:57 10° 353° (N) 1,991 6.2 -8.5°
Maximum altitude 05:19:22 84° 83° (E) 631 3.7 -7.7°
Drops below altitude 10° 05:23:47 10° 171° (S) 1,988 6.2 -6.9°
Sets 05:26:00 0° 172° (S) 2,892 7.0 -6.5°
